COSMOS 2251 DEB, 35837

Orbit data source: Space-Track

COSMOS 2251 DEB, 35837 is space debris in LEO originally from a launch on Wed, 16 Jun 1993 UTC launched from the Plesetsk Missile And Space Complex (PKMTR). The debris from Iridium 33, an American commercial communications satellite, has been tracked extensively since its accidental collision with the defunct Russian satellite Cosmos 2251 in 2009. This event, occurring at high speed in low Earth orbit (LEO), generated thousands of pieces of space debris, significantly increasing the risk of further collisions. The Iridium 33 debris cloud has impacted space traffic management and orbital debris mitigation strategies, making it a subject of ongoing study in space situational awareness.

Loading next visibility...
Identifier
35837, 1993-036ATK
Orbit
LEO
Country
Flag of CISCIS
Related business
Manufacturer
Unknown
Mission
Spacecraft
Bus & Motor
Unknown
Mass
Unknown
Launch date (UTC)
1993-06-16 (32 years ago)
Launch vehicle
Unknown
Launch site
Plesetsk Missile And Space Complex (PKMTR)
Object type
Payload
Rocket body
Debris
Shape & HBR
Unknown shape, 0.1 m
Radar Cross Section
Small (<0.1 m²)

Expand to show TLE details & history
Last TLE update: 22 hours ago

TLE from 22 hours ago
0 COSMOS 2251 DEB
1 35837U 93036ATK 25308.65546190  .00003380  00000-0  23572-2 0  9996
2 35837  73.7214 270.9761 0423799 197.6120 338.4413 13.63234749574570
Epoch: 2025-11-04T15:43Z
TLE epoch observation values (Epoch: 2025-11-04T15:43:51.908Z)
Latitude
5.51468°
Longitude
169.2636°
Altitude
736.036 km
Speed
7.633 km/s
True Right ascension
05h 57m 28s
True Declination
5° 28' 54"
Sunlit
Object was in full shadow at epoch
Visualization orbit readout
Latitude
Unknown
Longitude
Unknown
Altitude
Unknown
Speed
Unknown
Apparent Right ascension
Unknown
Apparent Declination
Unknown
Sunlit
N/A
Visualization observer readout
Local Sidereal Time
09:16:46
Azimuth
Unknown
Elevation
Unknown
Doppler factor
Unknown
Orbital elements
Apogee altitude
1,335.288 km
Perigee altitude
708.081 km
Semi-major axis
7,399.822 km
Eccentricity
0.04238
Inclination
73.7214°
RAAN
270.9761°
Arg. of periapsis
197.612°
True anomaly
336.56487°
Mean anomaly
338.4413°
Eccentric anomaly
337.51256°
Mean motion
3.40966 °/min
Orbital period
105.58 mins
BSTAR
0.0023572

Documentation

Showing up to 5 results
|